Location: New Frontier Mobile Home Park
(32.8448°N, 116.9675°W)
Time: 23:05:16
(UTC+00:00)

Cosmos 1459 Rocket - Pass Details

Date: 14 July 2020
Orbit: 938 x 999 km, 83.0° (Epoch: 05 August)

Event Time Altitude Azimuth Distance (km) Brightness Sun altitude
Exits shadow 09:35:24 49° 306° (NW) 1,209 4.4 -30.4°
Drops below altitude 10° 09:40:31 10° 355° (N) 2,686 7.0 -29.9°
Sets 09:43:07 0° 0° (N) 3,644 7.9 -29.7°
